STARLINK-5195, 54051

Orbit data source: Space-Track

STARLINK-5195, 54051 is a payload satellite owned by SpaceX/Seattle (US) in LEO that was launched on Thu, 20 Oct 2022 UTC via an FALCON 9 launch vehicle from the Air Force Eastern Test Range (AFETR). Payload-class satellites include a variety of spacecraft equipped with specific instruments for various scientific and technological missions. These include communications satellites like Starlink; space stations such as the ISS; scientific satellites like the Hubble; Earth observation satellites from companies like Planet Labs, Umbra, and HawkEye 360; GPS; miniature CubeSats for education and research; and military/defense satellites.

Loading next visibility...
Identifier
54051, 2022-136A
Orbit
LEO
Last TLE update
13 hours ago
Origin
Manufacturer
SpaceX/Seattle
Mission
Operational Commercial Communications
Bus & Motor
STARLINK, Unknown motor
Mass
305 kg wet, ~290 kg dry
Launch date (UTC)
2022-10-20 (3 years ago)
Launch vehicle
FALCON 9
Launch site
Air Force Eastern Test Range (AFETR)
Object type
Payload
Rocket body
Debris
Shape & HBR
Box + 1 Pan, 8.86 m
Radar Cross Section
13.562 m², Large (>1 m²)

Expand to show TLE details & history

TLE from 13 hours ago
0 STARLINK-5195
1 54051U 22136A   25181.86582333  .00000919  00000-0  75787-4 0  9991
2 54051  53.2185  34.8473 0001347  89.1771 270.9375 15.08842931148825
Epoch: 2025-06-30T20:46Z
TLE epoch observation values (Epoch: 2025-06-30T20:46:47.135Z)
Latitude
-0.00007°
Longitude
163.98136°
Altitude
540.617 km
Speed
7.593 km/s
True Right ascension
02h 19m 23s
True Declination
0° 00' 00"
Sunlit
Object was in daylight at epoch
Visualization orbit readout
Latitude
7.93683°
Longitude
-24.48809°
Altitude
539.771 km
Speed
7.594 km/s
Apparent Right ascension
12h 10m 29s
Apparent Declination
-16° 49' 52"
Sunlit
Object is in daylight
Visualization observer readout
Local Sidereal Time
21:53:18
Azimuth
297.879° NW
Elevation
-52.4°
Doppler factor
1
Orbital elements
Apogee altitude
540.911 km
Perigee altitude
539.047 km
Semi-major axis
6,918.116 km
Eccentricity
0.00013
Inclination
53.2185°
RAAN
34.8473°
Arg. of periapsis
89.1771°
True anomaly
Unknown
Mean anomaly
270.9375°
Eccentric anomaly
Unknown
Mean motion
3.77191 °/min
Orbital period
95.44 mins
BSTAR
0.000075787
Loading maneuver chart data...
Loading SW <> Apogee altitude chart data...
Loading historical data...
Loading historical data...
Loading historical data...
Loading historical data...
Loading historical data...
Loading historical data...
Loading historical data...

STARLINK-5195 Visibility forecast

Observer location: undefined°, undefined°

Span
Click to sort rows by Start time (UTC) header in descending order
Start Az.
Max El. time (UTC)
Max El. Az.
Max El.
End time (UTC)
End Az.
6 mins2025-07-01 16:00:53.133Z181.943° SSW2025-07-01 16:03:53.133Z118.26° SE24.873°2025-07-01 16:06:53.133Z71.069° E
6 mins2025-07-01 17:39:53.133Z262.251° W2025-07-01 17:42:53.133Z336.789° NNW33.116°2025-07-01 17:45:53.133Z35.28° NE
5 mins2025-07-01 22:41:53.133Z339.915° N2025-07-01 22:43:53.133Z26.863° NE28.086°2025-07-01 22:46:53.133Z88.95° E
6 mins2025-07-02 00:20:53.133Z287.413° WNW2025-07-02 00:22:53.133Z245.766° WSW31.652°2025-07-02 00:26:53.133Z158.83° S
|